Regional Weather Roundup
Issued by NWS

Home | Current Version | Previous Version | Graphics & Text | Print | Product List | Glossary On
Versions: 1 2 3 4 5 6 7 8 9 10 11 12 13 14 15 16 17 18 19 20 21 22 23 24 25 26 27 28 29 30 31 32 33 34 35 36 37 38 39 40 41 42 43 44 45 46 47 48 49 50
044
ASUS44 KJAN 231810
RWRMS

MISSISSIPPI HOURLY WEATHER ROUNDUP
NATIONAL WEATHER SERVICE JACKSON MS
100 PM CDT WED APR 23 2014

NOTE: "FAIR: INDICATES FEW OR NO CLOUDS BELOW 12,000 FEET WITH NO
SIGNIFICANT WEATHER AND/OR OBSTRUCTIONS TO VISIBILITY.

MSZ001>002-007>008-010>013-018>021-025>028-034>036-231900-
NORTHWEST MISSISSIPPI

CITY           SKY/WX    TMP DP  RH WIND       PRES   REMARKS
CLARKSDALE       N/A     73  43  33 CALM      30.01F
CLEVELAND      FAIR      73  47  40 E3        30.00F
GREENWOOD      FAIR      77  43  29 VRB5      29.99F
6HR MIN TEMP:  53; 6HR MAX TEMP:  77;

GREENVILLE     FAIR      75  47  36 E7        30.00F
6HR MIN TEMP:  53; 6HR MAX TEMP:  75;

GRENADA        FAIR      72  45  37 E6        30.01F
OLIVE BRANCH   SUNNY     72  39  30 NE5       30.02F
OXFORD         LGT RAIN  72  36  26 W3        30.02F
TUNICA         FAIR      72  37  28 CALM      30.02F
$$

MSZ003>006-009-014>017-022>024-029>033-037>039-231900-
NORTHEAST MISSISSIPPI

CITY           SKY/WX    TMP DP  RH WIND       PRES   REMARKS
BELMONT        FAIR      69  39  33 NE5       30.01F
COLUMBUS AFB   FAIR      74  41  30 VRB3      29.99F
6HR MIN TEMP:  53; 6HR MAX TEMP:  74;

CORINTH        FAIR      72  36  26 NE6       30.01F
GOLDN TRIANGLE SUNNY     73  45  35 N5        30.02F
STARKVILLE     FAIR      72  41  33 NW6       30.00F
TUPELO         FAIR      72  38  29 E8        30.00F
6HR MIN TEMP:  50; 6HR MAX TEMP:  73;

$$

MSZ040-058-231900-
CENTRAL MISSISSIPPI

CITY           SKY/WX    TMP DP  RH WIND       PRES   REMARKS
JACKSON INTL   FAIR      77  49  37 NW8       29.98F
6HR MIN TEMP:  52; 6HR MAX TEMP:  77;

JACKSON HAWKNS FAIR      78  46  32 CALM      29.99F
6HR MIN TEMP:  56; 6HR MAX TEMP:  78;

MERIDIAN KEY   FAIR      78  53  41 N6        29.97F
6HR MIN TEMP:  53; 6HR MAX TEMP:  78;

MERIDIAN NAS   FAIR      76  50  40 N9        29.99F
6HR MIN TEMP:  55; 6HR MAX TEMP:  76;

RAYMOND        FAIR      75  72  88 N5        29.98F
VICKSBURG      FAIR      79  44  28 N7        29.98F
6HR MIN TEMP:  55; 6HR MAX TEMP:  79;

$$

MSZ059>079-231900-
SOUTH MISSISSIPPI

CITY           SKY/WX    TMP DP  RH WIND       PRES   REMARKS
BROOKHAVEN     FAIR      75  50  41 CALM      29.99F
HATTIESBURG    PTSUNNY   80  58  46 CALM      29.96F
6HR MIN TEMP:  56; 6HR MAX TEMP:  81;

MCCOMB         FAIR      79  51  37 CALM      29.97F
6HR MIN TEMP:  62; 6HR MAX TEMP:  79;

NATCHEZ        FAIR      79  48  34 NE6       29.98F
6HR MIN TEMP:  54; 6HR MAX TEMP:  79;

PINE BELT      PTSUNNY   79  54  41 NW5       29.98
6HR MIN TEMP:  59; 6HR MAX TEMP:  55;

$$

MSZ080>082-231900-
COASTAL MISSISSIPPI

CITY           SKY/WX    TMP DP  RH WIND       PRES   REMARKS
BAY ST LOUIS   MOSUNNY   82  54  36 CALM      29.95F
BILOXI         FAIR      76  67  72 S12       29.95F
6HR MIN TEMP:  63; 6HR MAX TEMP:  79;

PASCAGOULA     PTSUNNY   79  66  64 S8        29.95F
6HR MIN TEMP:  60; 6HR MAX TEMP:  81;

GULFPORT       PTSUNNY   79  64  60 S9        29.95F
6HR MIN TEMP:  64; 6HR MAX TEMP:  82;

$$



USA.gov is the U.S. government's official web portal to all federal, state and local government web resources and services.